Regional Weather Roundup
Issued by NWS Charleston, SC

Current Version | Previous Version | Graphics & Text | Print | Product List | Glossary On
Versions: 1 2 3 4 5 6 7 8 9 10 11 12 13 14 15 16 17 18 19 20 21 22 23 24 25 26 27 28 29 30 31 32 33 34 35 36 37 38 39 40 41 42 43 44 45 46 47 48 49 50
000 ASUS42 KCHS 210327 RWRCHS REGIONAL WEATHER ROUNDUP NATIONAL WEATHER SERVICE CHARLESTON SC 1000 PM EST MON FEB 20 2017 NOTE: "FAIR" INDICATES FEW OR NO CLOUDS BELOW 12,000 FEET WITH NO SIGNIFICANT WEATHER AND/OR OBSTRUCTIONS TO VISIBILITY. NOT ALL STATIONS ARE QUALITY CONTROLLED. USE DATA WITH CAUTION... ESPECIALLY DEWPOINT OBSERVATIONS. SCZ027-030-031-034>040-042>050-210400- ...SOUTHEAST SOUTH CAROLINA... CITY SKY/WX TMP DP RH WIND PRES REMARKS N CHARLESTON CLOUDY 58 51 78 E3 30.18S WATERFRONT PRK N/A 59 57 93 CALM 30.17S MOUNT PLEASANT LGT RAIN 54 52 94 CALM 30.18F JOHNS ISLAND FAIR 55 54 94 CALM 30.18S PINOPOLIS N/A 59 48 67 CALM 30.09R MONCKS CORNER FAIR 52 46 82 CALM 30.18S SUMMERVILLE FAIR 54 46 76 CALM 30.19S BEAUFORT MCAS PTCLDY 58 57 97 CALM 30.17F BEAUFORT ARPT FAIR 55 55 100 E3 30.17S HILTON HEAD IS PTCLDY 54 54 100 CALM 30.18S FOG WALTERBORO PTCLDY 55 46 71 CALM 30.18S ALLENDALE FAIR 57 50 77 CALM 30.17R ...SOUTHERN MIDLANDS AND PEE DEE... CITY SKY/WX TMP DP RH WIND PRES REMARKS GEORGETOWN FAIR 52 52 100 CALM 30.20R KINGSTREE FAIR 54 46 76 CALM 30.19S ORANGEBURG PTCLDY 54 46 74 CALM 30.18R BARNWELL FAIR 55 50 82 CALM 30.18R AIKEN FAIR 50 43 76 CALM 30.21S MANNING FAIR 54 41 62 MISG 30.19R COLUMBIA PTCLDY 52 45 77 CALM 30.17R SUMTER PTCLDY 56 46 71 CALM 30.16R FLORENCE CLOUDY 58 49 72 SE5 30.19R MYRTLE BEACH CLEAR 57 52 82 E7 30.21R N MYRTLE BEACH PTCLDY 55 51 86 E3 30.19S $$ GAZ063-065-086>088-099>101-113>116-118-119-134>141-150-210400- ...SOUTHEAST GEORGIA... CITY SKY/WX TMP DP RH WIND PRES REMARKS SAVANNAH ARPT CLOUDY 59 55 87 E3 30.16F HUNTER AAF CLOUDY 56 56 100 E3 30.14F FORT STEWART PTCLDY 56 49 76 CALM 30.14S STATESBORO CLOUDY 56 50 80 CALM 30.16F SYLVANIA CLOUDY N/A N/A N/A CALM 30.17F CLAXTON FAIR N/A N/A N/A CALM 30.16F ...CSRA...CENTRAL AND FAR SOUTHEAST GEORGIA... CITY SKY/WX TMP DP RH WIND PRES REMARKS THOMSON CLOUDY 54 51 89 CALM 30.21S AUGUSTA-BUSH CLOUDY 55 46 71 CALM 30.17R AUGUSTA-DANIEL PTCLDY 62 44 51 CALM 30.17S SWAINSBORO FAIR 61 52 72 E5 30.16S VIDALIA CLOUDY 63 54 72 SE6 30.15F EASTMAN FAIR 56 53 88 CALM 30.16S HAZLEHURST FAIR 64 52 64 SE5 30.14R ALMA PTCLDY 62 51 67 E7 30.14S WAYCROSS PTCLDY 63 53 70 SE6 30.15S JESUP FAIR 55 50 82 CALM 30.16S BAXLEY FAIR 63 54 72 E5 30.15R BRUNSWICK FOG 54 54 100 CALM 30.17S VSB 1 SAINT SIMONS CLOUDY 60 57 89 E5 30.16S $$ SCZ027-028-034-036>038-045-046-048>050-GAZ119-141-210400- ...LAKE AND SUPPLEMENTAL COASTAL OBSERVATIONS... STATION/POSITION TIME TEMP WIND PRES WAVE SWELL AIR SEA DIR/SP/G HT/PER HT/PER/DIR (UTC) (F) (DEG/KT/KT) (MB) (FT/S) (FT/S/D) WINYAH BAY 0245 56 60/ 2 1022.0S LAKE MURRAY 0250 56 CALM 1021.3R ACE BASIN NERRS 0230 54 CALM 1022.0S FORT PULASKI 0300 61 60 110/ 5/ 6 1021.6 SAPELO ISLAND 0300 58 80/ 2 1021.0 $$ ANZ835-935-AMZ111-154-330-350-352-354-370-450-454-472-210400- ...C-MAN AND BUOY OBSERVATIONS... STATION/POSITION TIME TEMP WIND PRES WAVE SWELL AIR SEA DIR/SP/G HT/PER HT/PER/DIR (UTC) (F) (DEG/KT/KT) (MB) (FT/S) (FT/S/D) BUOY 41004 0250 67 66 70/ 6/ 6 1021.6F 2/ 4 2/ 50/ 4 BUOY 41008 0250 63 62 80/ 8/ 8 1021.2S 1/ 5 FOLLY BEACH CMAN 0300 59 70/ 4/ 5 1022.4F CAPERS NEARSHORE 0208 59 60 70/ 4/ 6 1021.9S FRIPP NEARSHORE 0308 61 61 80/ 6/ 8 1021.4F STATION/POSITION TIME TEMP WIND PRES WAVE SWELL AIR SEA DIR/SP/G HT/PER HT/PER/DIR (UTC) (F) (DEG/KT/KT) (MB) (FT/S) (FT/S/D) 5E ST. MARYS GA 0300 64 N/A 1/ 4 FRYING PAN BUOY 0310 66 65 70/ 14/ 16 1022.3 BUOY 41025 0250 60 73 50/ 17/ 23 1023.1F 5/ 8 2/270/13 CAPE LOOKOUT NC 0300 58 50/ 15/ 17 1023.1R BUOY 41002 0250 69 71 30/ 16/ 19 1020.3S 4/ 6 2/ 50/10 BUOY 41010 NOT AVBL ST AUGUSTINE FL 0300 67 69 60/ 9/ 10 1021.3F $$

USA.gov is the U.S. government's official web portal to all federal, state and local government web resources and services.